DW8482 Tortoreto Alto IT current weather conditions

sailwx.info

Wind from 046 at 7 knots gusting 10

Air temperature 15.6° C
Dewpoint 11.7° C

Last reported at 2015-May-24 12:47 UTC.
Time now 2015-May-24 13:23 UTC

Location: N 42°48' E 013°54'.
View on Google Maps.

See reports from other nearby stations

  
Tides and Currents Weather Stations Pressure Air Temp Water Temp Dewpoint Dewpoint Depression Visibility Wind Speed Wind Dir Waves Ship Positions
date/time (UTC)wind fromknots sea level pressurealtimeterstation pressurevisibilityair tempwater tempwave heightnotes
2015-May-24 12:47 046 7 gusting 10 15.6
2015-May-24 12:37 037 6 gusting 11 16.7
2015-May-24 12:32 023 9 gusting 14 16.7
2015-May-24 12:27 091 6 gusting 13 16.7
2015-May-24 12:12 028 10 gusting 14 17.2
2015-May-24 11:57 044 12 gusting 14 16.7
2015-May-24 11:52 055 5 gusting 15 16.1
2015-May-24 11:47 005 9 gusting 14 16.1
2015-May-24 11:37 032 12 gusting 15 16.1
2015-May-24 11:27 021 10 gusting 15 16.7
2015-May-24 11:22 034 10 gusting 13 16.7
2015-May-24 11:02 037 7 gusting 12 17.2
2015-May-24 10:47 053 8 gusting 13 17.2
2015-May-24 10:42 039 7 gusting 14 17.2
2015-May-24 10:37 070 8 gusting 12 16.7
2015-May-24 10:27 031 8 gusting 13 16.1
2015-May-24 10:17 017 12 gusting 12 16.1
2015-May-24 10:12 054 8 gusting 13 16.7
2015-May-24 10:07 046 7 gusting 13 17.2
2015-May-24 09:52 024 5 gusting 12 17.2
2015-May-24 09:42 034 6 gusting 10 16.7
2015-May-24 09:37 052 4 gusting 7 16.1
2015-May-24 09:32 036 1 gusting 7 16.1
2015-May-24 09:22 005 16.1
2015-May-24 09:12 289 17.2
2015-May-24 09:02 295 16.1
2015-May-24 08:57 348 4 gusting 4 16.1
2015-May-24 08:52 237 16.1
2015-May-24 08:47 301 16.7
2015-May-24 08:37 159 16.7
2015-May-24 08:32 018 2 gusting 6 16.1
2015-May-24 08:27 037 16.1
2015-May-24 08:22 347 3 gusting 5 16.1
2015-May-24 08:17 258 15.6
2015-May-24 08:07 322 15.6
2015-May-24 08:02 240 15.6
2015-May-24 07:52 313 4 gusting 6 15.6
2015-May-24 07:47 250 3 gusting 6 15.6
2015-May-24 07:42 254 1 gusting 7 15.6
2015-May-24 07:32 306 1 gusting 7 15.6
2015-May-24 07:22 309 3 gusting 7 15.0
2015-May-24 07:12 302 6 gusting 7 15.0
2015-May-24 07:07 311 6 gusting 6 15.0
2015-May-24 07:02 282 3 gusting 6 14.4
2015-May-24 06:57 275 14.4
2015-May-24 06:42 257 3 gusting 4 13.9
2015-May-24 06:37 263 1 gusting 5 13.3
2015-May-24 06:32 284 0 gusting 3 13.3
2015-May-24 06:27 282 3 gusting 4 13.3
2015-May-24 06:07 260 1 gusting 3 13.3
2015-May-24 06:02 265 12.8
2015-May-24 05:52 252 12.8
2015-May-24 05:47 257 12.8
2015-May-24 05:37 268 12.2
2015-May-24 05:32 284 12.2
2015-May-24 05:17 245 12.2
2015-May-24 05:02 236 0 gusting 3 11.7
2015-May-24 04:57 256 1 gusting 4 11.7
2015-May-24 04:52 259 11.7
2015-May-24 04:32 251 11.7
2015-May-24 04:22 268 12.2
2015-May-24 04:17 269 12.2
2015-May-24 04:07 273 0 gusting 2 12.2
2015-May-24 04:02 284 11.7
2015-May-24 03:57 254 1 gusting 2 11.7
2015-May-24 03:47 254 11.7
2015-May-24 03:42 254 11.7
2015-May-24 03:37 249 11.7
2015-May-24 03:27 254 11.7
2015-May-24 03:22 247 11.7
2015-May-24 03:17 253 11.7
2015-May-24 03:12 265 1 gusting 3 11.7
2015-May-24 03:07 257 1 gusting 2 11.7
2015-May-24 03:02 257 11.7
2015-May-24 02:57 254 11.7
2015-May-24 02:47 254 0 gusting 3 11.7
2015-May-24 02:42 254 2 gusting 4 11.7
2015-May-24 02:37 254 1 gusting 3 12.2
2015-May-24 02:32 254 0 gusting 3 12.2
2015-May-24 02:27 254 2 gusting 3 12.2
2015-May-24 02:02 254 12.2
2015-May-24 01:47 263 1 gusting 3 11.7
2015-May-24 01:42 263 2 gusting 3 11.7
2015-May-24 01:37 263 2 gusting 2 11.7
2015-May-24 01:32 263 11.7
2015-May-24 01:17 263 3 gusting 3 11.7
2015-May-24 01:02 281 12.2
2015-May-24 00:57 281 2 gusting 3 12.2
2015-May-24 00:52 288 12.2
2015-May-24 00:47 293 12.2
2015-May-24 00:37 292 1 gusting 4 12.2
2015-May-24 00:32 304 3 gusting 5 12.2
2015-May-24 00:27 286 12.8
2015-May-24 00:17 301 1 gusting 4 12.8
2015-May-24 00:12 300 12.8
2015-May-24 00:07 325 2 gusting 5 12.8
2015-May-23 23:57 350 4 gusting 6 12.8
2015-May-23 23:52 333 5 gusting 6 12.8
2015-May-23 23:47 327 5 gusting 6 12.8
2015-May-23 23:37 331 6 gusting 6 12.8
2015-May-23 23:27 315 5 gusting 6 12.2
2015-May-23 23:22 297 4 gusting 5 12.2
2015-May-23 23:17 266 12.2
2015-May-23 23:12 266 12.2
2015-May-23 23:07 266 2 gusting 3 12.2
2015-May-23 22:57 260 1 gusting 4 12.2
2015-May-23 22:47 263 3 gusting 4 12.8
2015-May-23 22:42 265 3 gusting 4 12.8
2015-May-23 22:37 269 12.8
2015-May-23 22:27 269 12.2
2015-May-23 22:22 269 1 gusting 4 12.2
2015-May-23 22:17 269 2 gusting 3 12.2
2015-May-23 22:12 269 12.2
2015-May-23 22:07 269 12.2
2015-May-23 22:02 269 12.2
2015-May-23 21:52 269 12.2
2015-May-23 21:47 269 12.2
2015-May-23 21:37 253 2 gusting 4 12.2
2015-May-23 21:32 250 4 gusting 4 12.2
2015-May-23 21:17 226 3 gusting 6 12.2
2015-May-23 21:12 242 4 gusting 5 12.8
2015-May-23 21:02 249 12.8
2015-May-23 20:57 264 12.8
2015-May-23 20:52 255 12.8
2015-May-23 20:47 252 4 gusting 5 12.8
2015-May-23 20:42 254 4 gusting 5 12.8
2015-May-23 20:37 252 1 gusting 4 12.8
2015-May-23 20:32 254 12.8
2015-May-23 20:22 237 3 gusting 4 12.8
2015-May-23 20:17 250 2 gusting 4 12.8
2015-May-23 19:52 228 4 gusting 5 12.8
2015-May-23 19:47 254 3 gusting 3 13.3
2015-May-23 19:37 242 2 gusting 2 13.3
2015-May-23 19:32 242 13.3
2015-May-23 19:27 242 2 gusting 4 13.3
2015-May-23 19:17 306 13.3
2015-May-23 19:12 306 13.3
2015-May-23 18:17 321 1 gusting 3 13.3
2015-May-23 18:12 292 13.3
2015-May-23 18:07 292 13.3
2015-May-23 18:02 325 1 gusting 2 13.3
2015-May-23 17:57 265 13.3
2015-May-23 17:52 265 13.3
2015-May-23 17:37 275 13.3
2015-May-23 17:32 275 13.3
2015-May-23 17:22 238 13.3
2015-May-23 17:17 234 13.3
2015-May-23 17:12 234 13.3
2015-May-23 17:07 275 13.9
2015-May-23 17:02 248 13.9
2015-May-23 16:57 042 13.3
2015-May-23 16:52 042 13.3
2015-May-23 16:47 042 13.3
2015-May-23 16:42 042 13.3
2015-May-23 16:37 042 13.3
2015-May-23 16:32 042 13.3
2015-May-23 16:27 042 13.3
2015-May-23 16:22 042 13.9
2015-May-23 16:07 042 13.9
2015-May-23 16:02 042 13.9
2015-May-23 15:57 042 13.9
2015-May-23 15:52 042 14.4
2015-May-23 15:47 042 14.4
2015-May-23 15:42 042 14.4
2015-May-23 15:37 042 2 gusting 3 14.4
2015-May-23 15:32 049 1 gusting 3 14.4
2015-May-23 15:17 096 2 gusting 4 14.4
2015-May-23 15:12 025 15.0
2015-May-23 15:07 348 14.4
2015-May-23 15:02 355 14.4
2015-May-23 14:57 005 4 gusting 6 13.9
2015-May-23 14:52 355 13.9
2015-May-23 14:47 005 13.9
2015-May-23 14:42 347 13.9
2015-May-23 14:37 042 14.4
2015-May-23 14:27 035 2 gusting 6 14.4
2015-May-23 14:22 041 3 gusting 5 13.9
2015-May-23 13:52 036 2 gusting 5 13.3
2015-May-23 13:47 015 4 gusting 6 13.3
2015-May-23 13:37 049 6 gusting 7 13.3
2015-May-23 13:22 038 6 gusting 7 13.3
2015-May-23 13:12 037 4 gusting 6 13.9
2015-May-23 13:07 028 3 gusting 6 14.4
2015-May-23 13:02 021 5 gusting 7 14.4
2015-May-23 12:57 049 4 gusting 7 15.0
2015-May-23 12:47 057 2 gusting 6 15.6
2015-May-23 12:42 034 5 gusting 8 15.6
2015-May-23 12:37 073 3 gusting 7 15.6
2015-May-23 12:27 024 7 gusting 8 16.1
2015-May-23 12:22 054 6 gusting 7 16.7
2015-May-23 12:17 032 7 gusting 9 17.2
2015-May-23 12:12 058 6 gusting 9 16.7
2015-May-23 12:07 060 3 gusting 9 16.7
2015-May-23 12:02 051 3 gusting 10 16.7
2015-May-23 11:57 061 3 gusting 9 16.7
2015-May-23 11:52 071 6 gusting 8 17.2
2015-May-23 11:47 068 6 gusting 8 17.2
2015-May-23 11:42 059 3 gusting 8 16.7
2015-May-23 11:32 067 4 gusting 6 17.2
2015-May-23 11:12 075 1 gusting 6 16.1
2015-May-23 11:07 052 15.6
2015-May-23 11:02 076 4 gusting 6 15.0
2015-May-23 10:57 036 3 gusting 6 15.0
2015-May-23 10:52 049 3 gusting 6 15.0
2015-May-23 10:47 060 4 gusting 7 15.0
2015-May-23 10:37 072 6 gusting 6 15.6
2015-May-23 10:32 068 6 gusting 6 15.6
2015-May-23 10:27 074 4 gusting 6 15.6
2015-May-23 10:22 051 4 gusting 8 15.6
2015-May-23 10:12 040 8 gusting 8 16.1
2015-May-23 10:07 043 2 gusting 7 16.1
2015-May-23 10:02 049 7 gusting 7 16.1
2015-May-23 09:47 062 6 gusting 8 15.6
2015-May-23 09:42 059 6 gusting 9 15.6
2015-May-23 09:37 079 0 gusting 8 16.1
2015-May-23 09:27 055 6 gusting 9 15.6
2015-May-23 09:17 067 6 gusting 9 16.1
2015-May-23 09:12 049 4 gusting 8 16.1
2015-May-23 09:07 034 5 gusting 8 16.1
2015-May-23 09:02 019 3 gusting 8 16.7
2015-May-23 08:47 078 1 gusting 9 16.7
2015-May-23 08:42 047 6 gusting 8 16.1
2015-May-23 08:37 057 6 gusting 8 16.1
2015-May-23 08:32 042 6 gusting 7 16.1
2015-May-23 08:27 080 2 gusting 6 15.6
2015-May-23 08:22 033 3 gusting 6 15.6
2015-May-23 08:17 040 3 gusting 6 15.0
2015-May-23 08:12 035 6 gusting 7 15.6
2015-May-23 08:07 064 4 gusting 7 15.0
2015-May-23 08:02 065 7 gusting 8 15.6
2015-May-23 07:57 030 3 gusting 6 16.1
2015-May-23 07:47 067 3 gusting 7 15.6
2015-May-23 07:42 034 2 gusting 6 15.6
2015-May-23 07:37 318 15.0
2015-May-23 07:27 005 3 gusting 7 14.4
2015-May-23 07:17 037 5 gusting 12 15.0
2015-May-23 07:12 333 9 gusting 12 14.4
2015-May-23 07:07 018 6 gusting 7 14.4
2015-May-23 07:02 022 3 gusting 6 14.4
2015-May-23 06:47 298 13.9
2015-May-23 06:42 288 13.9
2015-May-23 06:37 300 13.9
2015-May-23 06:32 290 13.3
2015-May-23 06:27 273 13.3
2015-May-23 06:22 273 12.8
2015-May-23 06:07 225 2 gusting 5 12.8
2015-May-23 06:02 245 3 gusting 5 12.8
2015-May-23 05:57 231 1 gusting 4 12.8
2015-May-23 05:47 229 0 gusting 2 12.8
2015-May-23 05:42 248 1 gusting 3 12.2
2015-May-23 05:32 225 2 gusting 4 11.7
2015-May-23 05:27 240 1 gusting 5 11.7
2015-May-23 05:17 244 2 gusting 5 11.7
2015-May-23 05:02 269 2 gusting 5 11.7
2015-May-23 04:52 264 3 gusting 3 11.1
2015-May-23 04:47 266 1 gusting 5 11.1
2015-May-23 04:42 250 3 gusting 3 10.6
2015-May-23 04:37 269 1 gusting 3 10.6
2015-May-23 04:32 257 2 gusting 3 10.6
2015-May-23 04:27 250 1 gusting 5 10.0
2015-May-23 04:22 252 1 gusting 5 10.0
2015-May-23 04:02 245 4 gusting 5 10.6
2015-May-23 03:57 235 1 gusting 2 10.6
2015-May-23 03:52 284 10.6
2015-May-23 03:47 236 10.6
2015-May-23 03:42 250 10.6
2015-May-23 03:37 250 2 gusting 4 10.6
2015-May-23 03:32 250 0 gusting 3 10.6
2015-May-23 03:27 273 10.6
2015-May-23 03:22 257 10.6
2015-May-23 03:12 286 4 gusting 4 10.6
2015-May-23 03:07 280 4 gusting 4 10.6
2015-May-23 02:57 283 10.6
2015-May-23 02:52 284 10.6
2015-May-23 02:47 264 10.6
2015-May-23 02:37 237 10.6
2015-May-23 02:27 232 10.6
2015-May-23 02:17 243 10.6
2015-May-23 02:12 237 0 gusting 1 10.6
2015-May-23 02:07 242 10.6
2015-May-23 01:57 243 3 gusting 3 10.6
2015-May-23 01:42 258 10.6
2015-May-23 01:37 227 10.6
2015-May-23 01:32 213 10.6
2015-May-23 01:27 248 2 gusting 5 10.6
2015-May-23 01:22 264 10.6
2015-May-23 00:17 267 10.6
2015-May-23 00:12 267 10.6
2015-May-22 23:47 247 10.6
2015-May-22 23:32 247 10.6
2015-May-22 23:27 248 10.6
2015-May-22 23:12 248 10.6
2015-May-22 23:02 248 0 gusting 1 10.6
2015-May-22 21:42 240 11.7
2015-May-22 21:32 228 1 gusting 3 11.1
2015-May-22 21:27 236 1 gusting 2 11.1
2015-May-22 21:22 240 1 gusting 2 11.1
2015-May-22 21:17 250 11.7
2015-May-22 21:12 284 11.7
2015-May-22 21:02 317 11.1
2015-May-22 20:52 317 11.1
2015-May-22 20:47 317 11.1
2015-May-22 20:42 252 11.1
2015-May-22 20:37 252 11.1
2015-May-22 20:32 252 11.1
2015-May-22 20:27 257 11.1
2015-May-22 20:22 250 3 gusting 4 11.1
2015-May-22 20:17 282 0 gusting 5 11.1
2015-May-22 20:12 258 2 gusting 4 10.6
2015-May-22 20:07 258 1 gusting 5 10.6
2015-May-22 19:57 262 1 gusting 4 10.6
2015-May-22 19:52 263 2 gusting 5 10.6
2015-May-22 19:47 273 10.6
2015-May-22 19:37 280 10.6
2015-May-22 19:32 281 6 gusting 6 10.6
2015-May-22 19:27 262 3 gusting 6 10.6
2015-May-22 19:22 271 10.6
2015-May-22 19:17 269 3 gusting 5 10.6
2015-May-22 19:12 262 1 gusting 5 10.6
2015-May-22 19:07 259 1 gusting 7 10.6
2015-May-22 19:02 302 1 gusting 6 10.6
2015-May-22 18:57 288 5 gusting 8 10.6
2015-May-22 18:52 315 7 gusting 10 11.1
2015-May-22 18:47 274 0 gusting 10 11.1
2015-May-22 18:42 277 1 gusting 5 11.1
2015-May-22 18:37 240 1 gusting 1 11.1
2015-May-22 18:32 245 1 gusting 4 11.7
2015-May-22 18:17 230 3 gusting 8 12.2
2015-May-22 17:42 258 4 gusting 16 13.3
2015-May-22 17:37 246 11 gusting 14 13.3
2015-May-22 17:32 226 6 gusting 17 13.3
2015-May-22 17:27 228 6 gusting 15 13.9
2015-May-22 17:22 242 8 gusting 19 13.9
2015-May-22 17:17 221 15 gusting 18 13.9
2015-May-22 17:12 242 11 gusting 12 13.9
2015-May-22 17:02 252 10 gusting 12 14.4
2015-May-22 16:57 288 6 gusting 18 14.4
2015-May-22 16:52 141 14.4
2015-May-22 16:47 065 15.0
2015-May-22 16:37 030 14.4
2015-May-22 16:22 248 14.4
2015-May-22 16:12 223 13.9
2015-May-22 16:07 167 13.9
2015-May-22 16:02 225 3 gusting 12 13.3
2015-May-22 15:57 251 12.8
2015-May-22 15:47 255 12.8
2015-May-22 15:42 197 12.8
2015-May-22 15:32 155 12.2
2015-May-22 15:27 219 4 gusting 14 12.2
2015-May-22 15:22 263 7 gusting 14 12.2
2015-May-22 15:07 304 0 gusting 15 12.2
2015-May-22 15:02 281 8 gusting 13 12.2
2015-May-22 14:57 285 12.2
2015-May-22 14:52 133 12.2
2015-May-22 14:47 310 0 gusting 19 12.2
2015-May-22 14:42 274 4 gusting 14 12.2
2015-May-22 14:37 283 11 gusting 18 12.2
2015-May-22 14:27 163 0 gusting 19 12.2
2015-May-22 14:22 275 12 gusting 21 12.2
2015-May-22 14:17 209 5 gusting 21 12.2
2015-May-22 14:07 257 15 gusting 28 12.8
2015-May-22 14:02 238 10 gusting 29 12.8
2015-May-22 13:42 350 6 gusting 26 12.8
2015-May-22 13:37 277 8 gusting 23 12.8
2015-May-22 13:32 250 23 gusting 24 12.8
2015-May-22 13:27 061 6 gusting 21 12.8
2015-May-22 13:22 312 10 gusting 29 13.3
2015-May-22 13:07 227 15 gusting 22 13.3